GALILEO A

Last updated on Sun Dec 21 2025 00:02:11 GMT+0000 (Coordinated Universal Time)

1 67160U 25302A 25352.14605887 -.00000007 00000+0 00000+0 0 9994 2 67160 54.2406 107.2544 0008423 237.6458 122.2317 1.72906186 28

Satellite not in orbit

GALILEO A